FW8085 Weather Reports


time (UTC)temp
C
wind
direction
speed
KPH
gust
KPH
rain 1hr
cm
rain 24hr
cm
rain mn
cm
humidity
%
barometer
mb
20260510043104 8 9 9.7 14.5 0.00 0.00 0.00 90 1013.1
20260510041529 8 22 4.8 9.7 0.00 0.00 0.00 90 1013.1
20260510040057 8 50 4.8 9.7 0.00 0.00 0.00 89 1013.1
20260510034529 8 20 6.4 9.7 0.00 0.00 0.00 89 1013.0
20260510033007 8 28 6.4 11.3 0.00 0.00 0.00 89 1013.1
20260510031544 8 15 6.4 9.7 0.00 0.00 0.00 88 1013.3
20260510030010 8 17 6.4 8.0 0.00 0.00 0.00 88 1013.3
20260510023022 8 22 6.4 8.0 0.00 0.00 0.00 88 1013.5
20260510021557 9 5 4.8 8.0 0.00 0.00 0.00 86 1013.5
20260510020027 9 5 4.8 8.0 0.00 0.00 0.00 85 1013.6
20260510014613 10 40 6.4 12.9 0.00 0.00 0.00 85 1013.7
20260510013052 9 35 8.0 12.9 0.00 0.00 0.00 86 1013.6
20260510011541 10 20 8.0 9.7 0.00 0.00 0.00 85 1013.8
20260510010014 10 15 8.0 11.3 0.00 0.00 0.00 86 1014.0
20260510004506 9 22 6.4 9.7 0.00 0.00 0.00 86 1014.1
20260510003057 9 16 6.4 8.0 0.00 0.00 0.00 84 1014.3
20260510001532 10 355 4.8 8.0 0.00 0.00 0.00 83 1014.4
20260510000019 10 26 4.8 8.0 0.00 0.00 0.00 82 1014.5
20260509234609 10 29 4.8 11.3 0.00 0.00 0.00 82 1014.6
20260509233042 10 26 6.4 12.9 0.00 0.00 0.00 84 1014.5
20260509231515 10 9 6.4 9.7 0.00 0.00 0.00 83 1014.6
20260509230057 10 5 6.4 8.0 0.00 0.00 0.00 82 1014.6
20260509224535 10 11 6.4 11.3 0.00 0.00 0.00 80 1014.7
20260509223102 11 5 8.0 11.3 0.00 0.00 0.00 80 1014.8
20260509221538 11 5 8.0 11.3 0.00 0.00 0.00 80 1014.8
20260509220033 11 28 4.8 9.7 0.00 0.00 0.00 78 1015.0
20260509214628 12 26 4.8 9.7 0.00 0.00 0.00 77 1014.9
20260509213034 12 17 6.4 9.7 0.00 0.00 0.00 76 1014.8
20260509211519 12 5 8.0 11.3 0.00 0.00 0.00 76 1014.9
20260509210011 12 41 4.8 8.0 0.00 0.00 0.00 76 1015.0
20260509204551 12 38 4.8 8.0 0.00 0.00 0.00 75 1015.0
20260509203056 12 10 6.4 9.7 0.00 0.00 0.00 74 1014.9
20260509201508 12 30 4.8 8.0 0.00 0.00 0.00 73 1014.9
20260509200046 13 31 4.8 8.0 0.00 0.00 0.00 72 1014.9
20260509194533 13 57 4.8 11.3 0.00 0.00 0.00 71 1014.8
20260509193024 14 24 4.8 11.3 0.00 0.00 0.00 69 1014.8
20260509191510 15 35 6.4 11.3 0.00 0.00 0.00 69 1014.5
20260509190034 15 30 6.4 14.5 0.00 0.00 0.00 67 1014.5
20260509184531 15 360 8.0 16.1 0.00 0.00 0.00 68 1014.4
20260509183058 16 22 6.4 11.3 0.00 0.00 0.00 67 1014.5
20260509181540 17 11 6.4 9.7 0.00 0.00 0.00 65 1014.5
20260509180034 17 16 6.4 14.5 0.00 0.00 0.00 61 1014.4
20260509174532 18 22 11.3 17.7 0.00 0.00 0.00 58 1014.3
20260509173020 19 16 11.3 19.3 0.00 0.00 0.00 56 1014.2
20260509171512 19 24 6.4 19.3 0.00 0.00 0.00 59 1014.5
20260509170100 19 42 12.9 22.5 0.00 0.00 0.00 56 1014.3
20260509164530 20 19 11.3 16.1 0.00 0.00 0.00 54 1014.2
20260509163031 21 49 8.0 20.9 0.00 0.00 0.00 53 1014.3
20260509161507 21 26 8.0 20.9 0.00 0.00 0.00 50 1014.1
20260509160051 21 17 8.0 19.3 0.00 0.00 0.00 53 1014.2
20260509154538 21 355 8.0 16.1 0.00 0.00 0.00 52 1014.2
20260509153031 21 17 9.7 14.5 0.00 0.00 0.00 49 1014.4
20260509151507 21 42 8.0 27.4 0.00 0.00 0.00 52 1014.5
20260509150029 21 25 12.9 17.7 0.00 0.00 0.00 50 1014.5
20260509144514 21 36 11.3 19.3 0.00 0.00 0.00 50 1014.6
20260509143008 21 17 3.2 16.1 0.00 0.00 0.00 49 1014.8
20260509141508 21 14 1.6 11.3 0.00 0.00 0.00 54 1015.0
20260509140051 21 13 9.7 17.7 0.00 0.00 0.00 50 1015.0
20260509134544 20 5 4.8 12.9 0.00 0.00 0.00 51 1015.1
20260509133041 21 21 6.4 17.7 0.00 0.00 0.00 51 1015.4
20260509131522 20 24 8.0 11.3 0.00 0.00 0.00 57 1015.5
20260509130030 19 22 9.7 19.3 0.00 0.00 0.00 53 1015.5
20260509124520 20 15 9.7 20.9 0.00 0.00 0.00 52 1015.6
20260509123009 21 360 9.7 20.9 0.00 0.00 0.00 54 1015.7
20260509121528 21 24 6.4 14.5 0.00 0.00 0.00 54 1015.8
20260509120059 20 5 11.3 20.9 0.00 0.00 0.00 51 1016.1
20260509114553 20 38 11.3 20.9 0.00 0.00 0.00 54 1016.2
20260509113027 21 25 12.9 20.9 0.00 0.00 0.00 49 1016.4
20260509111513 21 98 6.4 12.9 0.00 0.00 0.00 53 1016.6
20260509110039 20 12 8.0 16.1 0.00 0.00 0.00 53 1016.7
20260509104519 20 69 9.7 16.1 0.00 0.00 0.00 55 1016.9
20260509103018 20 16 8.0 17.7 0.00 0.00 0.00 56 1016.9
20260509101610 20 5 12.9 16.1 0.00 0.00 0.00 54 1016.9
20260509100041 20 53 9.7 19.3 0.00 0.00 0.00 53 1017.1
20260509094521 19 360 9.7 16.1 0.00 0.00 0.00 56 1017.1
20260509093017 18 25 11.3 19.3 0.00 0.00 0.00 56 1017.2
20260509091548 18 28 12.9 19.3 0.00 0.00 0.00 54 1017.3
20260509090024 18 29 9.7 14.5 0.00 0.00 0.00 58 1017.2
20260509084551 18 38 6.4 17.7 0.00 0.00 0.00 59 1017.3
20260509083029 18 18 9.7 14.5 0.00 0.00 0.00 60 1017.2
20260509081549 17 13 4.8 16.1 0.00 0.00 0.00 64 1017.3
20260509080020 17 76 6.4 19.3 0.00 0.00 0.00 64 1017.4
20260509074551 17 5 6.4 11.3 0.00 0.00 0.00 67 1017.4
20260509073028 16 100 3.2 14.5 0.00 0.00 0.00 67 1017.5
20260509071611 15 135 4.8 16.1 0.00 0.00 0.00 71 1017.5
20260509070031 15 17 3.2 9.7 0.00 0.00 0.00 74 1017.5
20260509064554 13 47 3.2 11.3 0.00 0.00 0.00 75 1017.6
20260509063032 13 126 3.2 8.0 0.00 0.00 0.00 77 1017.5
20260509061552 12 59 1.6 8.0 0.00 0.00 0.00 80 1017.5
20260509060016 11 56 4.8 11.3 0.00 0.00 0.00 81 1017.5
20260509054550 10 68 3.2 9.7 0.00 0.00 0.00 83 1017.5
20260509053019 9 83 3.2 8.0 0.00 0.00 0.00 86 1017.3
20260509051551 8 44 1.6 6.4 0.00 0.00 0.00 87 1017.1
20260509050018 8 26 3.2 6.4 0.00 0.00 0.00 89 1017.1
20260509044702 7 53 3.2 8.0 0.00 0.00 0.00 90 1017.1